| time (UTC) | temp F | wind direction | speed MPH | gust MPH | rain 1hr in | rain 24hr in | rain mn in | humidity % | barometer mb |
| 20260506172528 | 64 | 55 | 5.0 | 16.0 | 0.03 | 0.14 | 0.14 | 76 | 1008.3 |
| 20260506171742 | 64 | 41 | 4.0 | 16.0 | 0.03 | 0.14 | 0.14 | 76 | 1008.3 |
| 20260506171241 | 64 | 56 | 3.0 | 11.0 | 0.03 | 0.14 | 0.14 | 78 | 1008.2 |
| 20260506170740 | 63 | 88 | 3.0 | 11.0 | 0.04 | 0.14 | 0.14 | 79 | 1008.0 |
| 20260506170239 | 63 | 79 | 3.0 | 9.0 | 0.05 | 0.14 | 0.14 | 79 | 1007.9 |
| 20260506165726 | 63 | 34 | 2.0 | 7.0 | 0.06 | 0.14 | 0.14 | 79 | 1008.0 |
| 20260506165448 | 63 | 47 | 2.0 | 6.0 | 0.06 | 0.14 | 0.14 | 80 | 1008.2 |
| 20260506164714 | 62 | 85 | 2.0 | 6.0 | 0.06 | 0.13 | 0.13 | 79 | 1008.2 |
| 20260506164210 | 63 | 326 | 1.0 | 3.0 | 0.07 | 0.13 | 0.13 | 80 | 1008.3 |
| 20260506163650 | 63 | 75 | 1.0 | 4.0 | 0.07 | 0.12 | 0.12 | 79 | 1008.5 |
| 20260506163151 | 63 | 62 | 1.0 | 4.0 | 0.08 | 0.12 | 0.12 | 79 | 1008.8 |
| 20260506162650 | 63 | 84 | 1.0 | 7.0 | 0.07 | 0.11 | 0.12 | 79 | 1009.0 |
| 20260506162422 | 62 | 67 | 2.0 | 7.0 | 0.07 | 0.11 | 0.11 | 79 | 1009.3 |
| 20260506161619 | 62 | 89 | 3.0 | 8.0 | 0.07 | 0.11 | 0.11 | 78 | 1009.4 |
| 20260506161116 | 62 | 50 | 3.0 | 9.0 | 0.07 | 0.11 | 0.11 | 78 | 1009.5 |
| 20260506160608 | 62 | 91 | 2.0 | 9.0 | 0.07 | 0.10 | 0.10 | 78 | 1009.6 |
| 20260506160047 | 63 | 57 | 2.0 | 6.0 | 0.07 | 0.09 | 0.09 | 78 | 1009.5 |
| 20260506155548 | 63 | 69 | 2.0 | 9.0 | 0.06 | 0.08 | 0.08 | 78 | 1009.6 |
| 20260506155038 | 63 | 60 | 4.0 | 8.0 | 0.05 | 0.07 | 0.07 | 78 | 1009.8 |
| 20260506154534 | 64 | 77 | 4.0 | 9.0 | 0.04 | 0.06 | 0.06 | 78 | 1010.0 |
| 20260506154026 | 64 | 27 | 3.0 | 9.0 | 0.03 | 0.05 | 0.05 | 78 | 1009.9 |
| 20260506153526 | 64 | 75 | 3.0 | 6.0 | 0.03 | 0.05 | 0.05 | 77 | 1009.8 |
| 20260506153028 | 64 | 32 | 2.0 | 8.0 | 0.02 | 0.04 | 0.04 | 77 | 1009.7 |
| 20260506152743 | 64 | 94 | 3.0 | 8.0 | 0.02 | 0.04 | 0.04 | 77 | 1009.5 |
| 20260506152012 | 65 | 60 | 3.0 | 9.0 | 0.02 | 0.04 | 0.04 | 76 | 1009.6 |
| 20260506151452 | 65 | 53 | 3.0 | 9.0 | 0.02 | 0.04 | 0.04 | 75 | 1009.5 |
| 20260506150940 | 65 | 74 | 4.0 | 10.0 | 0.01 | 0.03 | 0.03 | 75 | 1009.5 |
| 20260506150438 | 65 | 82 | 4.0 | 10.0 | 0.01 | 0.03 | 0.03 | 74 | 1009.7 |
| 20260506145912 | 66 | 91 | 4.0 | 13.0 | 0.00 | 0.02 | 0.02 | 73 | 1009.6 |
| 20260506145618 | 66 | 97 | 5.0 | 13.0 | 0.00 | 0.02 | 0.02 | 71 | 1009.6 |
| 20260506144821 | 67 | 65 | 6.0 | 15.0 | 0.00 | 0.02 | 0.02 | 70 | 1009.8 |
| 20260506144551 | 67 | 47 | 6.0 | 15.0 | 0.00 | 0.02 | 0.02 | 68 | 1009.9 |
| 20260506143757 | 67 | 56 | 7.0 | 17.0 | 0.00 | 0.02 | 0.02 | 68 | 1009.9 |
| 20260506143255 | 68 | 66 | 7.0 | 17.0 | 0.00 | 0.02 | 0.02 | 67 | 1009.9 |
| 20260506142754 | 68 | 68 | 7.0 | 19.0 | 0.00 | 0.02 | 0.02 | 66 | 1009.7 |
| 20260506142230 | 68 | 354 | 7.0 | 19.0 | 0.00 | 0.02 | 0.02 | 66 | 1009.7 |
| 20260506141708 | 68 | 73 | 7.0 | 13.0 | 0.00 | 0.02 | 0.02 | 66 | 1009.6 |
| 20260506141201 | 68 | 68 | 6.0 | 13.0 | 0.00 | 0.02 | 0.02 | 66 | 1009.6 |
| 20260506140932 | 68 | 41 | 6.0 | 16.0 | 0.00 | 0.02 | 0.02 | 66 | 1009.4 |
| 20260506140154 | 68 | 68 | 7.0 | 16.0 | 0.00 | 0.02 | 0.02 | 67 | 1009.3 |
| 20260506135649 | 68 | 25 | 6.0 | 16.0 | 0.00 | 0.02 | 0.02 | 67 | 1009.4 |
| 20260506135122 | 67 | 42 | 5.0 | 16.0 | 0.00 | 0.02 | 0.02 | 68 | 1009.5 |
| 20260506134614 | 67 | 86 | 6.0 | 13.0 | 0.00 | 0.02 | 0.02 | 68 | 1009.5 |
| 20260506134105 | 67 | 88 | 5.0 | 13.0 | 0.00 | 0.02 | 0.02 | 67 | 1009.5 |
| 20260506133528 | 67 | 57 | 4.0 | 12.0 | 0.00 | 0.02 | 0.02 | 68 | 1009.5 |
| 20260506133003 | 67 | 43 | 5.0 | 15.0 | 0.00 | 0.02 | 0.02 | 68 | 1009.5 |
| 20260506132504 | 67 | 36 | 5.0 | 15.0 | 0.00 | 0.02 | 0.02 | 67 | 1009.6 |
| 20260506132003 | 67 | 53 | 4.0 | 9.0 | 0.00 | 0.02 | 0.02 | 68 | 1009.9 |
| 20260506131438 | 67 | 47 | 4.0 | 10.0 | 0.00 | 0.02 | 0.02 | 68 | 1009.8 |
| 20260506130939 | 67 | 67 | 5.0 | 13.0 | 0.00 | 0.02 | 0.02 | 68 | 1009.8 |
| 20260506130430 | 67 | 31 | 5.0 | 13.0 | 0.00 | 0.02 | 0.02 | 69 | 1009.7 |
| 20260506125914 | 67 | 68 | 5.0 | 16.0 | 0.00 | 0.02 | 0.02 | 68 | 1009.7 |
| 20260506125414 | 66 | 18 | 7.0 | 16.0 | 0.00 | 0.02 | 0.02 | 69 | 1009.6 |
| 20260506124913 | 66 | 38 | 6.0 | 15.0 | 0.00 | 0.02 | 0.02 | 69 | 1009.6 |
| 20260506124345 | 66 | 91 | 5.0 | 14.0 | 0.00 | 0.02 | 0.02 | 69 | 1009.5 |
| 20260506123847 | 66 | 60 | 4.0 | 14.0 | 0.00 | 0.02 | 0.02 | 69 | 1009.4 |
| 20260506123618 | 66 | 68 | 4.0 | 10.0 | 0.00 | 0.02 | 0.02 | 69 | 1009.4 |
| 20260506122841 | 66 | 44 | 3.0 | 9.0 | 0.00 | 0.02 | 0.02 | 69 | 1009.4 |
| 20260506122340 | 66 | 50 | 3.0 | 9.0 | 0.00 | 0.02 | 0.02 | 70 | 1009.3 |
| 20260506121824 | 66 | 37 | 4.0 | 10.0 | 0.02 | 0.02 | 0.02 | 70 | 1009.4 |
| 20260506121329 | 65 | 331 | 3.0 | 9.0 | 0.02 | 0.02 | 0.02 | 70 | 1009.5 |
| 20260506121325 | 65 | 55 | 3.0 | 10.0 | 0.02 | 0.02 | 0.02 | 70 | 1009.5 |
| 20260506120315 | 65 | 51 | 3.0 | 12.0 | 0.02 | 0.02 | 0.02 | 71 | 1009.6 |
| 20260506115748 | 65 | 87 | 3.0 | 8.0 | 0.02 | 0.02 | 0.02 | 71 | 1009.5 |
| 20260506115227 | 65 | 21 | 3.0 | 8.0 | 0.02 | 0.02 | 0.02 | 71 | 1009.6 |
| 20260506114708 | 65 | 65 | 3.0 | 10.0 | 0.02 | 0.02 | 0.02 | 71 | 1009.5 |
| 20260506114204 | 65 | 67 | 4.0 | 7.0 | 0.02 | 0.02 | 0.02 | 71 | 1009.6 |
| 20260506113643 | 65 | 61 | 4.0 | 11.0 | 0.02 | 0.02 | 0.02 | 71 | 1009.7 |
| 20260506113343 | 65 | 38 | 3.0 | 10.0 | 0.02 | 0.02 | 0.02 | 71 | 1009.9 |
| 20260506112548 | 65 | 24 | 2.0 | 12.0 | 0.02 | 0.02 | 0.02 | 71 | 1009.8 |
| 20260506112020 | 65 | 95 | 3.0 | 12.0 | 0.01 | 0.01 | 0.01 | 71 | 1009.6 |
| 20260506111518 | 65 | 49 | 3.0 | 6.0 | 0.00 | 0.00 | 0.00 | 72 | 1009.5 |
| 20260506110953 | 65 | 62 | 4.0 | 10.0 | 0.00 | 0.00 | 0.00 | 72 | 1009.5 |
| 20260506110657 | 65 | 45 | 4.0 | 10.0 | 0.00 | 0.00 | 0.00 | 72 | 1009.5 |
| 20260506105926 | 65 | 308 | 3.0 | 8.0 | 0.00 | 0.00 | 0.00 | 73 | 1009.6 |
| 20260506105427 | 64 | 56 | 3.0 | 8.0 | 0.00 | 0.00 | 0.00 | 73 | 1009.4 |
| 20260506104905 | 64 | 30 | 3.0 | 9.0 | 0.00 | 0.00 | 0.00 | 73 | 1009.3 |
| 20260506104634 | 64 | 63 | 3.0 | 9.0 | 0.00 | 0.00 | 0.00 | 73 | 1009.4 |
| 20260506104135 | 64 | 74 | 3.0 | 8.0 | 0.00 | 0.00 | 0.00 | 73 | 1009.3 |
| 20260506103332 | 64 | 76 | 3.0 | 8.0 | 0.00 | 0.00 | 0.00 | 73 | 1009.4 |
| 20260506102833 | 64 | 34 | 2.0 | 6.0 | 0.00 | 0.00 | 0.00 | 74 | 1009.3 |
| 20260506102336 | 64 | 60 | 3.0 | 11.0 | 0.00 | 0.00 | 0.00 | 73 | 1009.5 |
| 20260506101805 | 64 | 25 | 4.0 | 11.0 | 0.00 | 0.00 | 0.00 | 73 | 1009.4 |
| 20260506101248 | 64 | 42 | 3.0 | 9.0 | 0.00 | 0.00 | 0.00 | 73 | 1009.5 |
| 20260506100745 | 64 | 58 | 3.0 | 8.0 | 0.00 | 0.00 | 0.00 | 73 | 1009.4 |
| 20260506100518 | 64 | 46 | 3.0 | 8.0 | 0.00 | 0.00 | 0.00 | 73 | 1009.4 |
| 20260506095734 | 64 | 34 | 3.0 | 8.0 | 0.00 | 0.00 | 0.00 | 73 | 1009.4 |
| 20260506095506 | 64 | 49 | 3.0 | 7.0 | 0.00 | 0.00 | 0.00 | 73 | 1009.3 |
| 20260506094724 | 64 | 41 | 3.0 | 9.0 | 0.00 | 0.00 | 0.00 | 73 | 1009.2 |
| 20260506094221 | 65 | 41 | 4.0 | 9.0 | 0.00 | 0.00 | 0.00 | 72 | 1009.3 |
| 20260506093953 | 65 | 37 | 4.0 | 8.0 | 0.00 | 0.00 | 0.00 | 73 | 1009.2 |
| 20260506093436 | 65 | 76 | 3.0 | 8.0 | 0.00 | 0.00 | 0.00 | 73 | 1009.2 |
| 20260506092640 | 65 | 46 | 3.0 | 8.0 | 0.00 | 0.00 | 0.00 | 73 | 1009.2 |
| 20260506092115 | 65 | 58 | 3.0 | 8.0 | 0.00 | 0.00 | 0.00 | 73 | 1009.2 |
| 20260506091612 | 65 | 49 | 3.0 | 11.0 | 0.00 | 0.00 | 0.00 | 73 | 1009.3 |
| 20260506091110 | 65 | 23 | 3.0 | 11.0 | 0.00 | 0.00 | 0.00 | 73 | 1009.3 |
| 20260506090833 | 65 | 356 | 3.0 | 10.0 | 0.00 | 0.00 | 0.00 | 73 | 1009.4 |
| 20260506090101 | 65 | 65 | 4.0 | 10.0 | 0.00 | 0.00 | 0.00 | 73 | 1009.4 |
| 20260506085541 | 65 | 32 | 4.0 | 10.0 | 0.00 | 0.00 | 0.00 | 73 | 1009.4 |
| 20260506085245 | 65 | 80 | 4.0 | 9.0 | 0.00 | 0.00 | 0.00 | 73 | 1009.4 |
| 20260506084445 | 65 | 71 | 3.0 | 9.0 | 0.00 | 0.00 | 0.00 | 73 | 1009.4 |
| 20260506083939 | 65 | 22 | 3.0 | 11.0 | 0.00 | 0.00 | 0.00 | 73 | 1009.5 |
| 20260506083416 | 65 | 72 | 3.0 | 11.0 | 0.00 | 0.00 | 0.00 | 73 | 1009.6 |
| 20260506082845 | 65 | 62 | 3.0 | 9.0 | 0.00 | 0.00 | 0.00 | 73 | 1009.5 |
| 20260506082332 | 65 | 84 | 3.0 | 7.0 | 0.00 | 0.00 | 0.00 | 73 | 1009.5 |
| 20260506081830 | 65 | 64 | 3.0 | 7.0 | 0.00 | 0.00 | 0.00 | 73 | 1009.3 |
| 20260506081255 | 65 | 66 | 3.0 | 10.0 | 0.00 | 0.00 | 0.00 | 73 | 1009.4 |
| 20260506080755 | 65 | 78 | 3.0 | 10.0 | 0.00 | 0.00 | 0.00 | 73 | 1009.6 |
| 20260506080228 | 65 | 48 | 2.0 | 6.0 | 0.00 | 0.00 | 0.00 | 73 | 1009.6 |
| 20260506073139 | 66 | 70 | 3.0 | 6.0 | 0.00 | 0.00 | 0.00 | 71 | 1009.6 |
| 20260506072906 | 66 | 57 | 3.0 | 11.0 | 0.00 | 0.00 | 0.00 | 71 | 1009.6 |
| 20260506072747 | 66 | 36 | 3.0 | 11.0 | 0.00 | 0.00 | 0.00 | 71 | 1009.6 |
| 20260506071624 | 66 | 61 | 2.0 | 8.0 | 0.00 | 0.00 | 0.00 | 70 | 1009.6 |
| 20260506071126 | 66 | 44 | 3.0 | 8.0 | 0.00 | 0.00 | 0.00 | 70 | 1009.6 |
| 20260506070618 | 66 | 77 | 2.0 | 7.0 | 0.00 | 0.00 | 0.00 | 70 | 1009.6 |
| 20260506070116 | 66 | 44 | 2.0 | 4.0 | 0.00 | 0.00 | 0.00 | 70 | 1009.7 |
| 20260506062513 | 67 | 60 | 3.0 | 9.0 | 0.00 | 0.00 | 0.00 | 68 | 1009.9 |
| 20260506062011 | 67 | 64 | 3.0 | 9.0 | 0.00 | 0.00 | 0.00 | 67 | 1009.9 |
| 20260506061509 | 67 | 90 | 3.0 | 9.0 | 0.00 | 0.00 | 0.00 | 67 | 1010.0 |
| 20260506061230 | 67 | 55 | 3.0 | 9.0 | 0.00 | 0.00 | 0.00 | 67 | 1009.9 |
| 20260506060459 | 67 | 60 | 3.0 | 8.0 | 0.00 | 0.00 | 0.00 | 67 | 1009.9 |
| 20260506051338 | 67 | 43 | 3.0 | 7.0 | 0.00 | 0.00 | 0.00 | 65 | 1010.4 |
| 20260506050835 | 67 | 41 | 3.0 | 7.0 | 0.00 | 0.00 | 0.00 | 65 | 1010.5 |
| 20260506050322 | 67 | 30 | 3.0 | 5.0 | 0.00 | 0.00 | 0.00 | 65 | 1010.6 |
| 20260506044812 | 68 | 36 | 3.0 | 6.0 | 0.00 | 0.00 | 0.00 | 64 | 1010.6 |
| 20260506044314 | 68 | 66 | 3.0 | 10.0 | 0.00 | 0.00 | 0.00 | 64 | 1010.6 |
| 20260506043758 | 68 | 65 | 3.0 | 10.0 | 0.00 | 0.00 | 0.00 | 63 | 1010.6 |
| 20260506043524 | 68 | 38 | 3.0 | 8.0 | 0.00 | 0.00 | 0.00 | 63 | 1010.6 |
| 20260506042749 | 68 | 71 | 2.0 | 5.0 | 0.00 | 0.00 | 0.00 | 63 | 1010.6 |
| 20260506042249 | 68 | 79 | 3.0 | 8.0 | 0.00 | 0.00 | 0.00 | 63 | 1010.6 |
| 20260506041725 | 68 | 65 | 3.0 | 8.0 | 0.00 | 0.00 | 0.00 | 62 | 1010.6 |
| 20260506041432 | 68 | 59 | 3.0 | 10.0 | 0.00 | 0.00 | 0.00 | 62 | 1010.6 |
| 20260506041315 | 68 | 26 | 3.0 | 10.0 | 0.00 | 0.00 | 0.00 | 62 | 1010.6 |
| 20260506040154 | 68 | 51 | 3.0 | 11.0 | 0.00 | 0.00 | 0.00 | 62 | 1010.6 |
| 20260506035654 | 68 | 83 | 3.0 | 11.0 | 0.00 | 0.00 | 0.00 | 61 | 1010.6 |
| 20260506035144 | 68 | 98 | 3.0 | 11.0 | 0.00 | 0.00 | 0.00 | 61 | 1010.5 |
| 20260506034645 | 68 | 72 | 3.0 | 11.0 | 0.00 | 0.00 | 0.00 | 61 | 1010.5 |
| 20260506034116 | 68 | 343 | 3.0 | 11.0 | 0.00 | 0.00 | 0.00 | 61 | 1010.5 |
| 20260506034105 | 69 | 51 | 3.0 | 11.0 | 0.00 | 0.00 | 0.00 | 61 | 1010.5 |
| 20260506033332 | 69 | 64 | 2.0 | 9.0 | 0.00 | 0.00 | 0.00 | 60 | 1010.5 |
| 20260506032601 | 69 | 58 | 3.0 | 8.0 | 0.00 | 0.00 | 0.00 | 60 | 1010.5 |
| 20260506032100 | 69 | 64 | 2.0 | 8.0 | 0.00 | 0.00 | 0.00 | 60 | 1010.4 |
| 20260506031532 | 69 | 350 | 2.0 | 8.0 | 0.00 | 0.00 | 0.00 | 60 | 1010.3 |
| 20260506031006 | 69 | 58 | 2.0 | 6.0 | 0.00 | 0.00 | 0.00 | 60 | 1010.4 |
| 20260506030502 | 69 | 57 | 2.0 | 8.0 | 0.00 | 0.00 | 0.00 | 60 | 1010.5 |
| 20260506025938 | 69 | 84 | 2.0 | 8.0 | 0.00 | 0.00 | 0.00 | 60 | 1010.4 |
| 20260506025334 | 69 | 72 | 2.0 | 5.0 | 0.00 | 0.00 | 0.00 | 60 | 1010.5 |
| 20260506025100 | 69 | 82 | 2.0 | 6.0 | 0.00 | 0.00 | 0.00 | 60 | 1010.5 |
| 20260506024330 | 69 | 67 | 2.0 | 5.0 | 0.00 | 0.00 | 0.00 | 60 | 1010.4 |
| 20260506023814 | 69 | 54 | 2.0 | 6.0 | 0.00 | 0.00 | 0.00 | 60 | 1010.5 |
| 20260506023313 | 69 | 48 | 2.0 | 6.0 | 0.00 | 0.00 | 0.00 | 59 | 1010.5 |
| 20260506023045 | 69 | 61 | 2.0 | 10.0 | 0.00 | 0.00 | 0.00 | 59 | 1010.4 |
| 20260506022251 | 70 | 64 | 3.0 | 10.0 | 0.00 | 0.00 | 0.00 | 59 | 1010.5 |
| 20260506021726 | 70 | 64 | 3.0 | 11.0 | 0.00 | 0.00 | 0.00 | 58 | 1010.5 |
| 20260506021211 | 70 | 25 | 3.0 | 11.0 | 0.00 | 0.00 | 0.00 | 58 | 1010.5 |
| 20260506020653 | 71 | 30 | 4.0 | 12.0 | 0.00 | 0.00 | 0.00 | 57 | 1010.5 |
| 20260506020647 | 70 | 46 | 3.0 | 12.0 | 0.00 | 0.00 | 0.00 | 58 | 1010.5 |
| 20260506015647 | 71 | 28 | 3.0 | 10.0 | 0.00 | 0.00 | 0.00 | 57 | 1010.4 |
| 20260506015122 | 71 | 340 | 3.0 | 7.0 | 0.00 | 0.00 | 0.00 | 56 | 1010.4 |
| 20260506014556 | 71 | 19 | 3.0 | 7.0 | 0.00 | 0.00 | 0.00 | 55 | 1010.2 |
| 20260506014320 | 72 | 328 | 2.0 | 6.0 | 0.00 | 0.00 | 0.00 | 54 | 1010.3 |
| 20260506013538 | 72 | 37 | 2.0 | 4.0 | 0.00 | 0.00 | 0.00 | 52 | 1010.2 |
| 20260506013242 | 72 | 302 | 3.0 | 6.0 | 0.00 | 0.00 | 0.00 | 51 | 1010.0 |
| 20260506012511 | 73 | 62 | 3.0 | 6.0 | 0.00 | 0.00 | 0.00 | 50 | 1010.1 |
| 20260506012011 | 73 | 81 | 3.0 | 10.0 | 0.00 | 0.00 | 0.00 | 49 | 1010.2 |
| 20260506011451 | 73 | 328 | 3.0 | 10.0 | 0.00 | 0.00 | 0.00 | 49 | 1009.9 |
| 20260506011153 | 73 | 29 | 2.0 | 6.0 | 0.00 | 0.00 | 0.00 | 48 | 1009.9 |
| 20260506010620 | 73 | 34 | 2.0 | 3.0 | 0.00 | 0.00 | 0.00 | 47 | 1009.8 |
| 20260506005824 | 74 | 34 | 2.0 | 3.0 | 0.00 | 0.00 | 0.00 | 46 | 1009.7 |
| 20260506005320 | 74 | 65 | 2.0 | 6.0 | 0.00 | 0.00 | 0.00 | 46 | 1009.6 |
| 20260506004809 | 74 | 75 | 2.0 | 5.0 | 0.00 | 0.00 | 0.00 | 46 | 1009.6 |
| 20260506004246 | 74 | 39 | 2.0 | 6.0 | 0.00 | 0.00 | 0.00 | 46 | 1009.4 |
| 20260506003743 | 74 | 60 | 2.0 | 6.0 | 0.00 | 0.00 | 0.00 | 45 | 1009.4 |
| 20260506003244 | 75 | 42 | 3.0 | 8.0 | 0.00 | 0.00 | 0.00 | 45 | 1009.4 |
| 20260506002733 | 75 | 51 | 3.0 | 8.0 | 0.00 | 0.00 | 0.00 | 45 | 1009.2 |
| 20260506002231 | 75 | 61 | 3.0 | 10.0 | 0.00 | 0.00 | 0.00 | 45 | 1009.2 |
| 20260506002002 | 75 | 51 | 3.0 | 10.0 | 0.00 | 0.00 | 0.00 | 45 | 1009.1 |
| 20260506001200 | 75 | 41 | 3.0 | 8.0 | 0.00 | 0.00 | 0.00 | 45 | 1009.2 |
| 20260506000636 | 76 | 88 | 3.0 | 8.0 | 0.00 | 0.00 | 0.00 | 45 | 1009.1 |
| 20260506000124 | 76 | 36 | 4.0 | 10.0 | 0.00 | 0.00 | 0.00 | 45 | 1009.1 |
| 20260505235555 | 76 | 66 | 3.0 | 10.0 | 0.00 | 0.00 | 0.00 | 44 | 1009.0 |
| 20260505235042 | 76 | 77 | 4.0 | 13.0 | 0.00 | 0.00 | 0.00 | 44 | 1009.0 |
| 20260505234747 | 77 | 39 | 5.0 | 13.0 | 0.00 | 0.00 | 0.00 | 43 | 1009.0 |
| 20260505234243 | 77 | 36 | 4.0 | 9.0 | 0.00 | 0.00 | 0.00 | 43 | 1009.0 |
| 20260505233457 | 77 | 48 | 3.0 | 9.0 | 0.00 | 0.00 | 0.00 | 43 | 1009.0 |
| 20260505232959 | 77 | 43 | 4.0 | 9.0 | 0.00 | 0.00 | 0.00 | 42 | 1008.9 |
| 20260505232432 | 77 | 42 | 5.0 | 12.0 | 0.00 | 0.00 | 0.00 | 41 | 1008.8 |
| 20260505231919 | 78 | 83 | 5.0 | 12.0 | 0.00 | 0.00 | 0.00 | 40 | 1008.8 |
| 20260505231419 | 78 | 29 | 4.0 | 12.0 | 0.00 | 0.00 | 0.00 | 40 | 1008.8 |
| 20260505230852 | 78 | 77 | 5.0 | 10.0 | 0.00 | 0.00 | 0.00 | 39 | 1008.6 |
| 20260505230350 | 78 | 69 | 5.0 | 14.0 | 0.00 | 0.00 | 0.00 | 39 | 1008.6 |
| 20260505230052 | 79 | 19 | 6.0 | 14.0 | 0.00 | 0.00 | 0.00 | 38 | 1008.5 |
| 20260505225306 | 79 | 51 | 6.0 | 16.0 | 0.00 | 0.00 | 0.00 | 37 | 1008.6 |
| 20260505224802 | 79 | 35 | 7.0 | 21.0 | 0.00 | 0.00 | 0.00 | 37 | 1008.6 |
| 20260505224302 | 79 | 86 | 6.0 | 21.0 | 0.00 | 0.00 | 0.00 | 37 | 1008.5 |
| 20260505223801 | 79 | 48 | 6.0 | 16.0 | 0.00 | 0.00 | 0.00 | 37 | 1008.5 |
| 20260505223255 | 79 | 33 | 7.0 | 16.0 | 0.00 | 0.00 | 0.00 | 35 | 1008.4 |
| 20260505222752 | 79 | 27 | 7.0 | 20.0 | 0.00 | 0.00 | 0.00 | 35 | 1008.5 |
| 20260505222252 | 79 | 93 | 8.0 | 20.0 | 0.00 | 0.00 | 0.00 | 35 | 1008.4 |
| 20260505221752 | 79 | 77 | 8.0 | 22.0 | 0.00 | 0.00 | 0.00 | 35 | 1008.5 |
| 20260505221248 | 79 | 20 | 7.0 | 22.0 | 0.00 | 0.00 | 0.00 | 35 | 1008.5 |
| 20260505220716 | 79 | 67 | 6.0 | 18.0 | 0.00 | 0.00 | 0.00 | 35 | 1008.5 |
| 20260505220215 | 80 | 78 | 8.0 | 14.0 | 0.00 | 0.00 | 0.00 | 34 | 1008.5 |
| 20260505215651 | 80 | 44 | 9.0 | 25.0 | 0.00 | 0.00 | 0.00 | 33 | 1008.3 |
| 20260505215150 | 80 | 34 | 9.0 | 25.0 | 0.00 | 0.00 | 0.00 | 33 | 1008.5 |
| 20260505214905 | 80 | 68 | 10.0 | 23.0 | 0.00 | 0.00 | 0.00 | 33 | 1008.5 |
| 20260505214114 | 80 | 356 | 10.0 | 22.0 | 0.00 | 0.00 | 0.00 | 33 | 1008.4 |
| 20260505213547 | 81 | 78 | 9.0 | 22.0 | 0.00 | 0.00 | 0.00 | 31 | 1008.2 |
| 20260505213035 | 81 | 89 | 10.0 | 20.0 | 0.00 | 0.00 | 0.00 | 33 | 1008.2 |
| 20260505212508 | 81 | 13 | 10.0 | 21.0 | 0.00 | 0.00 | 0.00 | 32 | 1008.2 |
| 20260505212005 | 81 | 36 | 10.0 | 25.0 | 0.00 | 0.00 | 0.00 | 31 | 1008.1 |
| 20260505211509 | 81 | 51 | 10.0 | 25.0 | 0.00 | 0.00 | 0.00 | 30 | 1008.2 |
| 20260505210951 | 82 | 46 | 10.0 | 25.0 | 0.00 | 0.00 | 0.00 | 29 | 1008.3 |
| 20260505210722 | 82 | 38 | 9.0 | 25.0 | 0.00 | 0.00 | 0.00 | 30 | 1008.2 |
| 20260505205952 | 82 | 80 | 9.0 | 20.0 | 0.00 | 0.00 | 0.00 | 31 | 1008.1 |
| 20260505205436 | 82 | 15 | 10.0 | 23.0 | 0.00 | 0.00 | 0.00 | 32 | 1008.2 |
| 20260505205147 | 82 | 55 | 10.0 | 23.0 | 0.00 | 0.00 | 0.00 | 33 | 1008.1 |
| 20260505204414 | 82 | 90 | 11.0 | 26.0 | 0.00 | 0.00 | 0.00 | 33 | 1008.1 |
| 20260505203915 | 82 | 66 | 10.0 | 26.0 | 0.00 | 0.00 | 0.00 | 30 | 1008.1 |
| 20260505203411 | 82 | 54 | 9.0 | 23.0 | 0.00 | 0.00 | 0.00 | 31 | 1008.0 |
| 20260505202912 | 82 | 54 | 9.0 | 19.0 | 0.00 | 0.00 | 0.00 | 34 | 1008.0 |
| 20260505202409 | 82 | 63 | 9.0 | 18.0 | 0.00 | 0.00 | 0.00 | 34 | 1008.0 |
| 20260505201902 | 82 | 20 | 9.0 | 18.0 | 0.00 | 0.00 | 0.00 | 32 | 1007.9 |
| 20260505201402 | 82 | 75 | 10.0 | 24.0 | 0.00 | 0.00 | 0.00 | 33 | 1008.0 |
| 20260505200835 | 82 | 23 | 11.0 | 24.0 | 0.00 | 0.00 | 0.00 | 33 | 1008.1 |
| 20260505200319 | 82 | 67 | 8.0 | 22.0 | 0.00 | 0.00 | 0.00 | 33 | 1008.1 |
| 20260505195814 | 82 | 53 | 6.0 | 13.0 | 0.00 | 0.00 | 0.00 | 33 | 1008.0 |
| 20260505195304 | 82 | 48 | 7.0 | 22.0 | 0.00 | 0.00 | 0.00 | 37 | 1008.1 |
| 20260505194748 | 82 | 41 | 10.0 | 22.0 | 0.00 | 0.00 | 0.00 | 34 | 1008.2 |
| 20260505194516 | 82 | 41 | 10.0 | 22.0 | 0.00 | 0.00 | 0.00 | 34 | 1008.3 |
| 20260505193952 | 82 | 45 | 9.0 | 19.0 | 0.00 | 0.00 | 0.00 | 35 | 1008.4 |
| 20260505193222 | 82 | 74 | 10.0 | 23.0 | 0.00 | 0.00 | 0.00 | 35 | 1008.3 |
| 20260505192723 | 81 | 44 | 11.0 | 23.0 | 0.00 | 0.00 | 0.00 | 35 | 1008.5 |
| 20260505192225 | 81 | 101 | 9.0 | 20.0 | 0.00 | 0.00 | 0.00 | 37 | 1008.5 |
| 20260505191657 | 81 | 25 | 10.0 | 24.0 | 0.00 | 0.00 | 0.00 | 36 | 1008.6 |
| 20260505191137 | 81 | 23 | 9.0 | 24.0 | 0.00 | 0.00 | 0.00 | 36 | 1008.6 |
| 20260505190637 | 81 | 83 | 9.0 | 18.0 | 0.00 | 0.00 | 0.00 | 38 | 1008.7 |
| 20260505190410 | 81 | 21 | 10.0 | 19.0 | 0.00 | 0.00 | 0.00 | 39 | 1008.8 |
| 20260505185638 | 81 | 60 | 10.0 | 25.0 | 0.00 | 0.00 | 0.00 | 38 | 1008.8 |
| 20260505185140 | 81 | 86 | 9.0 | 25.0 | 0.00 | 0.00 | 0.00 | 37 | 1008.9 |
| 20260505184616 | 81 | 82 | 8.0 | 17.0 | 0.00 | 0.00 | 0.00 | 38 | 1008.9 |
| 20260505184047 | 82 | 62 | 8.0 | 14.0 | 0.00 | 0.00 | 0.00 | 39 | 1009.0 |
| 20260505183532 | 82 | 72 | 8.0 | 20.0 | 0.00 | 0.00 | 0.00 | 40 | 1009.0 |
| 20260505183248 | 82 | 58 | 7.0 | 20.0 | 0.00 | 0.00 | 0.00 | 40 | 1009.2 |
| 20260505182744 | 81 | 51 | 9.0 | 18.0 | 0.00 | 0.00 | 0.00 | 40 | 1009.3 |
| 20260505182016 | 81 | 40 | 8.0 | 18.0 | 0.00 | 0.00 | 0.00 | 37 | 1009.3 |
| 20260505181508 | 82 | 46 | 8.0 | 18.0 | 0.00 | 0.00 | 0.00 | 40 | 1009.5 |
| 20260505180952 | 82 | 19 | 7.0 | 15.0 | 0.00 | 0.00 | 0.00 | 38 | 1009.5 |
| 20260505180453 | 82 | 63 | 6.0 | 15.0 | 0.00 | 0.00 | 0.00 | 39 | 1009.5 |
| 20260505175930 | 81 | 39 | 7.0 | 15.0 | 0.00 | 0.00 | 0.00 | 42 | 1009.5 |
| 20260505175426 | 81 | 56 | 7.0 | 17.0 | 0.00 | 0.00 | 0.00 | 42 | 1009.5 |
| 20260505174927 | 81 | 44 | 7.0 | 17.0 | 0.00 | 0.00 | 0.00 | 40 | 1009.6 |
| 20260505174424 | 81 | 49 | 7.0 | 15.0 | 0.00 | 0.00 | 0.00 | 41 | 1009.5 |
| 20260505174201 | 81 | 54 | 6.0 | 16.0 | 0.00 | 0.00 | 0.00 | 40 | 1009.6 |
| 20260505173427 | 81 | 5 | 6.0 | 16.0 | 0.00 | 0.00 | 0.00 | 39 | 1009.6 |
| 20260505172920 | 81 | 63 | 7.0 | 18.0 | 0.00 | 0.00 | 0.00 | 44 | 1009.7 |